Regional Weather Roundup
Issued by NWS Charleston, SC

Current Version | Previous Version | Text Only | Print | Product List | Glossary Off
Versions: 1 2 3 4 5 6 7 8 9 10 11 12 13 14 15 16 17 18 19 20 21 22 23 24 25 26 27 28 29 30 31 32 33 34 35 36 37 38 39 40 41 42 43 44 45 46 47 48 49 50

000
ASUS42 KCHS 210511
RWRCHS

REGIONAL WEATHER ROUNDUP
NATIONAL WEATHER SERVICE CHARLESTON SC
100 AM EDT TUE APR 21 2015

NOTE: "FAIR" INDICATES FEW OR NO CLOUDS BELOW 12,000 FEET WITH NO
SIGNIFICANT WEATHER AND/OR OBSTRUCTIONS TO VISIBILITY.

NOT ALL STATIONS ARE QUALITY CONTROLLED BY THE NATIONAL
WEATHER SERVICE. USE DATA WITH CAUTION...ESPECIALLY
DEWPOINT OBSERVATIONS.

SCZ027-030-031-034>040-042>050-210600-
...SOUTHEAST SOUTH CAROLINA...

CITY           SKY/WX    TMP DP  RH WIND       PRES   REMARKS
N CHARLESTON   CLEAR     69  59  70 SW13G21   29.84R
WATERFRONT PRK NOT AVBL
MOUNT PLEASANT FAIR      70  61  73 CALM      29.84R
PINOPOLIS      NOT AVBL
MONCKS CORNER  FAIR      68  59  73 SW9       29.82S
SUMMERVILLE    FAIR      64  61  88 S6        29.84S
BEAUFORT MCAS  CLEAR     68  60  75 SW15      29.85S
BEAUFORT ARPT  NOT AVBL
HILTON HEAD IS CLEAR     68  61  77 SW7       29.88R
WALTERBORO     CLEAR     64  59  82 SW10      29.84S
ALLENDALE      FAIR      64  61  88 CALM      29.83R

...SOUTHERN MIDLANDS AND PEE DEE...

CITY           SKY/WX    TMP DP  RH WIND       PRES   REMARKS
GEORGETOWN     NOT AVBL
KINGSTREE      NOT AVBL
ORANGEBURG     CLOUDY    66  59  78 SW9       29.82R
BARNWELL       MOCLDY    66  63  88 W6        29.85R
AIKEN          FAIR      61  57  88 W6        29.86R
MANNING        FAIR      64  59  82 SW10G17   29.80R
COLUMBIA       PTCLDY    66  55  67 W10       29.80R
SUMTER         CLEAR     66  60  82 SW13      29.77R
FLORENCE       PTCLDY    67  61  81 SW9       29.77R
MYRTLE BEACH   CLOUDY    70  59  68 SW13G20   29.82R
N MYRTLE BEACH MOCLDY    67  62  84 SW17      29.78S

$$

GAZ063-065-086>088-099>101-113>116-118-119-134>141-150-210600-
...SOUTHEAST GEORGIA...

CITY           SKY/WX    TMP DP  RH WIND       PRES   REMARKS
SAVANNAH ARPT  CLEAR     64  58  80 SW9       29.87R
HUNTER AAF     CLEAR     66  61  85 SW8       29.86R
FORT STEWART   NOT AVBL
STATESBORO       N/A     65  63  93 SW6       29.86R
SYLVANIA       PTCLDY    64  62  93 SW3       29.86R
CLAXTON        FAIR      64  63  94 CALM      29.87R

...CSRA...CENTRAL AND FAR SOUTHEAST GEORGIA...

CITY           SKY/WX    TMP DP  RH WIND       PRES   REMARKS
THOMSON        MOCLDY    63  58  84 CALM      29.89R
AUGUSTA-BUSH   CLEAR     63  60  90 W7        29.84R
AUGUSTA-DANIEL PTCLDY    68  53  58 NW12G21   29.85R
SWAINSBORO     NOT AVBL
VIDALIA        PTCLDY    64  63  94 SW6       29.86S
EASTMAN        FAIR      65  65 100 W3        29.90R
HAZLEHURST     CLOUDY    69  67  94 SW5       29.86S
ALMA           CLOUDY    64  63  96 S8        29.88S
WAYCROSS       CLOUDY    67  67  97 SW7       29.90S
JESUP          CLOUDY    64  63  94 SW6       29.90R
BAXLEY         MOCLDY    64  63  94 SW5       29.88R
BRUNSWICK      CLOUDY    68  61  77 SW10      29.91R
SAINT SIMONS   CLEAR     66  62  87 SW8       29.90S

$$

SCZ027-028-034-036>038-045-046-048>050-GAZ119-141-210600-
...LAKE AND SUPPLEMENTAL COASTAL OBSERVATIONS...

STATION/POSITION TIME  TEMP    WIND        PRES    WAVE   SWELL
                       AIR SEA DIR/SP/G            HT/PER HT/PER/DIR
                 (UTC) (F)     (DEG/KT/KT) (MB)    (FT/S) (FT/S/D)
UPR LAKE MARION  NOT AVBL
WINYAH BAY       NOT AVBL
LAKE MURRAY      0400   66     270/ 14/ 20 1007.8R
ACE BASIN NERRS  NOT AVBL
FORT PULASKI     0400   69 71  220/  7/ 13 1011.9R
SAPELO ISLAND    0400   66     210/ 12     1012.0R

$$

ANZ835-935-AMZ111-154-330-350-352-354-370-450-454-472-210600-
...C-MAN AND BUOY OBSERVATIONS...

STATION/POSITION TIME  TEMP    WIND        PRES    WAVE   SWELL
                       AIR SEA DIR/SP/G            HT/PER HT/PER/DIR
                 (UTC) (F)     (DEG/KT/KT) (MB)    (FT/S) (FT/S/D)
BUOY 41004       0450   72 73  240/ 19/ 23 1010.1R   5/ 6   2/10
BUOY 41008       0450   68 68  220/ 16/ 17 1012.2R   2/ 3   2/250/15
FOLLY BEACH CMAN 0500   69     230/ 11/ 14 1010.7R
CAPERS NEARSHORE NOT AVBL
FRIPP NEARSHORE  NOT AVBL


STATION/POSITION TIME  TEMP    WIND        PRES    WAVE   SWELL
                       AIR SEA DIR/SP/G            HT/PER HT/PER/DIR
                 (UTC) (F)     (DEG/KT/KT) (MB)    (FT/S) (FT/S/D)
5E ST. MARYS GA  0421      70                N/A     2/17   2/ 90/17
FRYING PAN BUOY  0450   75 72  230/ 17/ 21 1009.9R   4/ 6   2/120/ 8
BUOY 41025       0450   73 75  240/ 19/ 23 1008.3R   6/ 6   2/120/13
CAPE LOOKOUT NC  0400   67     220/  9/ 11 1008.5R
BUOY 41002       0450   72 72  210/ 17/ 19 1012.3F   5/ 6   2/ 90/ 8
BUOY 41010       0420   73 78  100/ 12/ 16 1012.7F
ST AUGUSTINE FL  0500   64 63  220/  8/ 10 1014.2R


$$



USA.gov is the U.S. government's official web portal to all federal, state and local government web resources and services.